Danbury, CT

3:08 PM EDT on March 23, 2017 (GMT -0400)
Danbury Municipal

Weather History for KDXR - November, 2013

Change the Weather History Date:

Sunday, November 10, 2013

  Actual Average Record
Temperature  
Mean Temperature 47 °F -  
Max Temperature 55 °F 52 °F 71 °F (1999)
Min Temperature 39 °F 36 °F 21 °F (2003)
Degree Days  
Heating Degree Days 18    
Moisture  
Dew Point 31 °F    
Average Humidity 55    
Maximum Humidity 70    
Minimum Humidity 37    
Precipitation  
Precipitation 0.11 in - - ()
Sea Level Pressure  
Sea Level Pressure 29.90 in    
Wind  
Wind Speed 5 mph (WSW)    
Max Wind Speed 17 mph    
Max Gust Speed 32 mph    
Visibility 10 miles    
Events Rain    
Averages and records for this station are not official NWS values.
T = Trace of Precipitation, MM = Missing Value Source: NWS Daily Summary

Daily Weather History Graph

Daily Weather History Graph

Search for Another Location

Airport or City:

Trip Planner

Search our weather history database for the weather conditions in past years. The results will help you decide how hot, cold, wet, or windy it might be!

Date:

Astronomy

Nov. 10, 2013 Rise Set
Actual Time 6:36 AM EST 4:38 PM EST
Civil Twilight 6:07 AM EST 5:08 PM EST
Nautical Twilight 5:33 AM EST 5:41 PM EST
Astronomical Twilight 5:01 AM EST 6:13 PM EST
Moon 12:46 PM EST (11/10) No Moon Set
Length of Visible Light 11h 00m
Length of Day
10h 02m
First Quarter, 55% of the Moon is Illuminated
Nov 10
First Quarter
Nov 17
Full
Nov 25
Last Quarter
Dec 2
New
Dec 9
First Quarter

Hourly Weather History & Observations

Time (EST) Temp. Windchill Dew Point Humidity Pressure Visibility Wind Dir Wind Speed Gust Speed Precip Events Conditions
12:53 AM 45.0 °F - 30.0 °F 56% 29.97 in 10.0 mi Calm Calm - N/A   Overcast
1:53 AM 45.0 °F - 30.9 °F 58% 29.95 in 10.0 mi Calm Calm - N/A   Overcast
2:53 AM 46.0 °F 43.9 °F 30.9 °F 56% 29.93 in 10.0 mi WSW 4.6 mph - N/A   Overcast
3:53 AM 45.0 °F 41.8 °F 30.9 °F 58% 29.91 in 10.0 mi SW 5.8 mph - N/A   Overcast
4:53 AM 44.1 °F 41.5 °F 30.9 °F 60% 29.91 in 10.0 mi SW 4.6 mph - N/A   Overcast
5:53 AM 41.0 °F - 30.9 °F 67% 29.90 in 10.0 mi Calm Calm - N/A   Overcast
6:53 AM 39.9 °F - 30.9 °F 70% 29.90 in 10.0 mi Calm Calm - N/A   Overcast
7:53 AM 42.1 °F - 33.1 °F 70% 29.90 in 10.0 mi Calm Calm - N/A   Overcast
8:53 AM 46.9 °F - 32.0 °F 56% 29.88 in 10.0 mi WSW 5.8 mph - N/A   Clear
9:53 AM 52.0 °F - 34.0 °F 50% 29.85 in 10.0 mi WSW 8.1 mph - N/A   Clear
10:53 AM 55.9 °F - 34.0 °F 44% 29.82 in 10.0 mi SW 11.5 mph - N/A   Scattered Clouds
11:25 AM 55.4 °F - 30.2 °F 38% 29.81 in 10.0 mi WSW 16.1 mph 23.0 mph N/A   Mostly Cloudy
11:53 AM 55.0 °F - 28.9 °F 37% 29.81 in 10.0 mi WSW 16.1 mph 25.3 mph 0.01 in   Scattered Clouds
12:53 PM 53.1 °F - 33.1 °F 47% 29.80 in 10.0 mi West 8.1 mph 17.3 mph 0.00 in   Overcast
1:53 PM 45.0 °F 41.2 °F 35.1 °F 68% 29.87 in 7.0 mi Variable 6.9 mph 23.0 mph 0.00 in Rain Light Rain
2:53 PM 45.0 °F 41.2 °F 32.0 °F 60% 29.87 in 10.0 mi West 6.9 mph 16.1 mph 0.04 in   Overcast
3:53 PM 46.9 °F - 32.0 °F 56% 29.88 in 10.0 mi West 8.1 mph - 0.03 in   Overcast
4:53 PM 46.0 °F 42.5 °F 32.0 °F 58% 29.90 in 10.0 mi West 6.9 mph 16.1 mph 0.01 in   Clear
5:53 PM 46.0 °F 41.4 °F 30.9 °F 56% 29.93 in 10.0 mi West 9.2 mph 20.7 mph 0.02 in   Scattered Clouds
6:53 PM 45.0 °F 39.3 °F 30.9 °F 58% 29.95 in 10.0 mi West 11.5 mph - N/A   Mostly Cloudy
7:53 PM 45.0 °F 40.1 °F 30.9 °F 58% 29.94 in 10.0 mi West 9.2 mph - N/A   Overcast
8:53 PM 46.0 °F 39.0 °F 28.9 °F 51% 29.95 in 10.0 mi West 17.3 mph 26.5 mph N/A   Mostly Cloudy
9:53 PM 46.0 °F 39.6 °F 27.0 °F 47% 29.97 in 10.0 mi West 15.0 mph 23.0 mph N/A   Overcast
10:53 PM 46.0 °F 41.9 °F 26.1 °F 46% 29.98 in 10.0 mi WNW 8.1 mph 29.9 mph N/A   Overcast
11:53 PM 46.0 °F 39.0 °F 24.1 °F 42% 30.00 in 10.0 mi West 17.3 mph 32.2 mph N/A   Partly Cloudy